Time,TemperatureF,DewpointF,PressureIn,WindDirection,WindDirectionDegrees,WindSpeedMPH,WindSpeedGustMPH,Humidity,HourlyPrecipIn,Conditions,Clouds,dailyrainin,SolarRadiationWatts/m^2,SoftwareType,DateUTC
2013-01-24 00:00:00,45.0,42.5,30.18,SSW,201,0.0,0.0,91,0.00,,---,0.00,0.00,VWS V14.00,2013-01-24 06:00:00,
2013-01-24 00:03:00,45.0,42.5,30.18,SSW,201,0.0,0.0,91,0.00,,---,0.00,0.00,VWS V14.00,2013-01-24 06:03:00,
2013-01-24 00:08:00,45.0,42.2,30.18,SSW,201,0.0,0.0,90,0.00,,---,0.00,0.00,VWS V14.00,2013-01-24 06:08:00,
2013-01-24 00:13:00,45.0,42.2,30.18,SSW,201,0.0,0.0,90,0.00,,---,0.00,0.00,VWS V14.00,2013-01-24 06:13:00,
2013-01-24 00:18:00,44.9,42.2,30.18,SSW,196,0.0,0.0,90,0.00,,---,0.00,0.00,VWS V14.00,2013-01-24 06:18:00,
2013-01-24 00:23:00,45.1,42.6,30.18,SSW,196,0.0,0.0,91,0.00,,---,0.00,0.00,VWS V14.00,2013-01-24 06:23:00,
2013-01-24 00:28:00,45.4,42.9,30.19,SSW,196,0.0,0.0,91,0.00,,---,0.00,0.00,VWS V14.00,2013-01-24 06:28:00,
2013-01-24 00:30:00,45.4,42.9,30.19,SSW,196,0.0,1.0,91,0.00,,---,0.00,0.00,VWS V14.00,2013-01-24 06:30:00,
2013-01-24 00:33:00,45.7,43.2,30.19,SSW,196,0.0,0.0,91,0.00,,---,0.00,0.00,VWS V14.00,2013-01-24 06:33:00,
2013-01-24 00:38:00,45.9,43.4,30.18,SSW,196,0.0,0.0,91,0.00,,---,0.00,0.00,VWS V14.00,2013-01-24 06:38:00,
2013-01-24 00:43:00,46.1,43.6,30.18,SSW,196,0.0,0.0,91,0.00,,---,0.00,0.00,VWS V14.00,2013-01-24 06:43:00,
2013-01-24 00:48:00,46.4,43.6,30.18,SSW,196,0.0,0.0,90,0.00,,---,0.00,0.00,VWS V14.00,2013-01-24 06:48:00,
2013-01-24 00:53:00,46.5,43.7,30.19,SSW,196,0.0,0.0,90,0.00,,---,0.00,0.00,VWS V14.00,2013-01-24 06:53:00,
2013-01-24 00:58:00,46.6,43.5,30.19,SSW,196,0.0,0.0,89,0.00,,---,0.00,0.00,VWS V14.00,2013-01-24 06:58:00,
2013-01-24 01:00:00,46.6,43.8,30.19,SSW,196,0.0,0.0,90,0.00,,---,0.00,0.00,VWS V14.00,2013-01-24 07:00:00,
2013-01-24 01:06:00,46.5,43.4,30.19,SSW,196,0.0,0.0,89,0.00,,---,0.00,0.00,VWS V14.00,2013-01-24 07:06:00,
2013-01-24 01:11:00,46.5,43.4,30.19,SSW,196,0.0,0.0,89,0.00,,---,0.00,0.00,VWS V14.00,2013-01-24 07:11:00,
2013-01-24 01:16:00,46.5,43.4,30.19,SSW,196,0.0,0.0,89,0.00,,---,0.00,0.00,VWS V14.00,2013-01-24 07:16:00,
2013-01-24 01:21:00,46.6,43.5,30.19,SSW,196,0.0,0.0,89,0.00,,---,0.00,0.00,VWS V14.00,2013-01-24 07:21:00,
2013-01-24 01:26:00,46.6,43.5,30.19,SSW,196,0.0,0.0,89,0.00,,---,0.00,0.00,VWS V14.00,2013-01-24 07:26:00,
2013-01-24 01:30:00,46.6,43.5,30.19,SSW,196,0.0,0.0,89,0.00,,---,0.00,0.00,VWS V14.00,2013-01-24 07:30:00,
2013-01-24 01:31:00,46.6,43.5,30.19,SSW,196,0.0,0.0,89,0.00,,---,0.00,0.00,VWS V14.00,2013-01-24 07:31:00,
2013-01-24 01:36:00,46.7,43.9,30.19,SSW,196,0.0,0.0,90,0.00,,---,0.00,0.00,VWS V14.00,2013-01-24 07:36:00,
2013-01-24 01:41:00,46.8,44.0,30.20,SSW,196,0.0,0.0,90,0.00,,---,0.00,0.00,VWS V14.00,2013-01-24 07:41:00,
2013-01-24 01:46:00,46.9,44.1,30.20,SSW,196,0.0,0.0,90,0.00,,---,0.00,0.00,VWS V14.00,2013-01-24 07:46:00,
2013-01-24 01:51:00,46.9,43.8,30.20,SSW,196,0.0,0.0,89,0.00,,---,0.00,0.00,VWS V14.00,2013-01-24 07:51:00,
2013-01-24 01:56:00,47.0,43.9,30.20,SSW,196,0.0,0.0,89,0.00,,---,0.00,0.00,VWS V14.00,2013-01-24 07:56:00,
2013-01-24 02:00:00,47.0,43.9,30.21,SSW,196,0.0,0.0,89,0.00,,---,0.00,0.00,VWS V14.00,2013-01-24 08:00:00,
2013-01-24 02:01:00,47.1,44.0,30.21,SSW,196,0.0,0.0,89,0.00,,---,0.00,0.00,VWS V14.00,2013-01-24 08:01:00,
2013-01-24 02:06:00,47.1,44.0,30.21,SSW,196,0.0,0.0,89,0.00,,---,0.00,0.00,VWS V14.00,2013-01-24 08:06:00,
2013-01-24 02:11:00,47.1,44.0,30.21,SSW,196,0.0,0.0,89,0.00,,---,0.00,0.00,VWS V14.00,2013-01-24 08:11:00,
2013-01-24 02:16:00,47.1,44.0,30.20,SSW,196,0.0,0.0,89,0.00,,---,0.00,0.00,VWS V14.00,2013-01-24 08:16:00,
2013-01-24 02:21:00,47.2,44.1,30.20,SSW,196,0.0,0.0,89,0.00,,---,0.00,0.00,VWS V14.00,2013-01-24 08:21:00,
2013-01-24 02:26:00,47.2,44.1,30.20,SSW,196,0.0,0.0,89,0.00,,---,0.00,0.00,VWS V14.00,2013-01-24 08:26:00,
2013-01-24 02:30:00,47.2,44.1,30.20,SSW,196,0.0,0.0,89,0.00,,---,0.00,0.00,VWS V14.00,2013-01-24 08:30:00,
2013-01-24 02:31:00,47.3,44.2,30.21,SSW,196,0.0,0.0,89,0.00,,---,0.00,0.00,VWS V14.00,2013-01-24 08:31:00,
2013-01-24 02:36:00,47.3,44.2,30.21,SSW,196,0.0,0.0,89,0.00,,---,0.00,0.00,VWS V14.00,2013-01-24 08:36:00,
2013-01-24 02:41:00,47.4,44.3,30.21,SSW,196,0.0,0.0,89,0.00,,---,0.00,0.00,VWS V14.00,2013-01-24 08:41:00,
2013-01-24 02:46:00,47.4,44.3,30.21,SSW,196,0.0,0.0,89,0.00,,---,0.00,0.00,VWS V14.00,2013-01-24 08:46:00,
2013-01-24 02:51:00,47.5,44.4,30.21,SSW,196,0.0,0.0,89,0.00,,---,0.00,0.00,VWS V14.00,2013-01-24 08:51:00,
2013-01-24 02:56:00,47.4,44.3,30.21,SSW,196,0.0,0.0,89,0.00,,---,0.00,0.00,VWS V14.00,2013-01-24 08:56:00,
2013-01-24 03:00:00,47.4,44.3,30.21,SSW,196,0.0,0.0,89,0.00,,---,0.00,0.00,VWS V14.00,2013-01-24 09:00:00,
2013-01-24 03:01:00,47.4,44.3,30.21,SSW,196,0.0,0.0,89,0.00,,---,0.00,0.00,VWS V14.00,2013-01-24 09:01:00,
2013-01-24 03:06:00,47.3,44.2,30.21,SSW,196,0.0,0.0,89,0.00,,---,0.00,0.00,VWS V14.00,2013-01-24 09:06:00,
2013-01-24 03:11:00,47.4,44.0,30.21,SSW,196,0.0,1.0,88,0.00,,---,0.00,0.00,VWS V14.00,2013-01-24 09:11:00,
2013-01-24 03:16:00,47.8,44.7,30.22,North,349,0.0,3.0,89,0.00,,---,0.00,0.00,VWS V14.00,2013-01-24 09:16:00,
2013-01-24 03:21:00,48.5,43.6,30.22,NNE,22,1.0,5.0,83,0.00,,---,0.00,0.00,VWS V14.00,2013-01-24 09:21:00,
2013-01-24 03:26:00,49.0,43.4,30.22,NE,40,4.0,5.0,81,0.00,,---,0.00,0.00,VWS V14.00,2013-01-24 09:26:00,
2013-01-24 03:30:00,49.1,43.5,30.22,NNE,32,3.0,5.0,81,0.00,,---,0.00,0.00,VWS V14.00,2013-01-24 09:30:00,
2013-01-24 03:31:00,49.3,43.4,30.22,NE,49,1.0,4.0,80,0.00,,---,0.00,0.00,VWS V14.00,2013-01-24 09:31:00,
2013-01-24 03:36:00,49.3,43.4,30.22,NE,41,0.0,7.0,80,0.00,,---,0.00,0.00,VWS V14.00,2013-01-24 09:36:00,
2013-01-24 03:41:00,49.0,42.8,30.22,NNE,30,3.0,7.0,79,0.00,,---,0.00,0.00,VWS V14.00,2013-01-24 09:41:00,
2013-01-24 03:46:00,48.6,42.4,30.23,North,355,2.0,10.0,79,0.00,,---,0.00,0.00,VWS V14.00,2013-01-24 09:46:00,
2013-01-24 03:51:00,48.3,41.8,30.23,North,355,2.0,10.0,78,0.00,,---,0.00,0.00,VWS V14.00,2013-01-24 09:51:00,
2013-01-24 03:56:00,47.8,41.6,30.23,ENE,57,0.0,10.0,79,0.00,,---,0.00,0.00,VWS V14.00,2013-01-24 09:56:00,
2013-01-24 04:00:00,47.7,41.5,30.23,NE,55,0.0,10.0,79,0.00,,---,0.00,0.00,VWS V14.00,2013-01-24 10:00:00,
2013-01-24 04:01:00,47.5,41.3,30.23,NE,51,3.0,5.0,79,0.00,,---,0.00,0.00,VWS V14.00,2013-01-24 10:01:00,
2013-01-24 04:06:00,47.0,41.2,30.23,ENE,59,3.0,10.0,80,0.00,,---,0.00,0.00,VWS V14.00,2013-01-24 10:06:00,
2013-01-24 04:11:00,46.8,41.0,30.23,NE,52,4.0,10.0,80,0.00,,---,0.00,0.00,VWS V14.00,2013-01-24 10:11:00,
2013-01-24 04:16:00,46.5,40.0,30.25,NE,46,4.0,10.0,78,0.00,,---,0.00,0.00,VWS V14.00,2013-01-24 10:16:00,
2013-01-24 04:21:00,46.1,38.6,30.25,NE,37,3.0,10.0,75,0.00,,---,0.00,0.00,VWS V14.00,2013-01-24 10:21:00,
2013-01-24 04:26:00,45.5,36.3,30.25,NE,46,4.0,14.0,70,0.00,,---,0.00,0.00,VWS V14.00,2013-01-24 10:26:00,
2013-01-24 04:30:00,45.4,35.8,30.25,NE,40,1.0,14.0,69,0.00,,---,0.00,0.00,VWS V14.00,2013-01-24 10:30:00,
2013-01-24 04:31:00,44.9,35.4,30.25,NW,310,0.0,10.0,69,0.00,,---,0.00,0.00,VWS V14.00,2013-01-24 10:31:00,
2013-01-24 04:36:00,44.4,35.2,30.26,NE,46,4.0,12.0,70,0.00,,---,0.00,0.00,VWS V14.00,2013-01-24 10:36:00,
2013-01-24 04:41:00,44.0,34.9,30.26,ENE,61,0.0,14.0,70,0.00,,---,0.00,0.00,VWS V14.00,2013-01-24 10:41:00,
2013-01-24 04:46:00,43.6,34.1,30.26,ENE,59,5.0,14.0,69,0.00,,---,0.00,0.00,VWS V14.00,2013-01-24 10:46:00,
2013-01-24 04:51:00,43.3,34.2,30.26,NE,52,0.0,14.0,70,0.00,,---,0.00,0.00,VWS V14.00,2013-01-24 10:51:00,
2013-01-24 04:56:00,43.0,33.5,30.26,NNE,32,3.0,14.0,69,0.00,,---,0.00,0.00,VWS V14.00,2013-01-24 10:56:00,
2013-01-24 05:00:00,42.9,33.8,30.26,NNE,20,0.0,14.0,70,0.00,,---,0.00,0.00,VWS V14.00,2013-01-24 11:00:00,
2013-01-24 05:01:00,42.7,33.6,30.26,NE,52,1.0,6.0,70,0.00,,---,0.00,0.00,VWS V14.00,2013-01-24 11:01:00,
2013-01-24 05:06:00,42.4,33.3,30.27,NE,34,0.0,10.0,70,0.00,,---,0.00,0.00,VWS V14.00,2013-01-24 11:06:00,
2013-01-24 05:11:00,42.2,33.1,30.27,NNE,26,0.0,10.0,70,0.00,,---,0.00,0.00,VWS V14.00,2013-01-24 11:11:00,
2013-01-24 05:16:00,42.0,32.9,30.27,ENE,71,4.0,11.0,70,0.00,,---,0.00,0.00,VWS V14.00,2013-01-24 11:16:00,
2013-01-24 05:21:00,41.8,32.8,30.27,NE,51,4.0,11.0,70,0.00,,---,0.00,0.00,VWS V14.00,2013-01-24 11:21:00,
2013-01-24 05:26:00,41.6,32.6,30.28,NNE,26,0.0,11.0,70,0.00,,---,0.00,0.00,VWS V14.00,2013-01-24 11:26:00,
2013-01-24 05:30:00,41.6,32.6,30.28,NE,44,0.0,11.0,70,0.00,,---,0.00,0.00,VWS V14.00,2013-01-24 11:30:00,
2013-01-24 05:31:00,41.4,32.4,30.28,ENE,58,3.0,10.0,70,0.00,,---,0.00,0.00,VWS V14.00,2013-01-24 11:31:00,
2013-01-24 05:36:00,41.2,32.2,30.28,ENE,57,6.0,12.0,70,0.00,,---,0.00,0.00,VWS V14.00,2013-01-24 11:36:00,
2013-01-24 05:41:00,41.1,31.7,30.28,ENE,75,5.0,12.0,69,0.00,,---,0.00,0.00,VWS V14.00,2013-01-24 11:41:00,
2013-01-24 05:46:00,41.0,31.3,30.29,NNW,348,0.0,12.0,68,0.00,,---,0.00,0.00,VWS V14.00,2013-01-24 11:46:00,
2013-01-24 05:51:00,41.0,30.9,30.31,ENE,65,11.0,12.0,67,0.00,,---,0.00,0.00,VWS V14.00,2013-01-24 11:51:00,
2013-01-24 05:56:00,41.0,30.9,30.31,NE,38,0.0,12.0,67,0.00,,---,0.00,0.00,VWS V14.00,2013-01-24 11:56:00,
2013-01-24 06:00:00,41.0,30.9,30.31,NE,51,4.0,12.0,67,0.00,,---,0.00,0.00,VWS V14.00,2013-01-24 12:00:00,
2013-01-24 06:01:00,41.0,30.9,30.30,ENE,58,4.0,10.0,67,0.00,,---,0.00,0.00,VWS V14.00,2013-01-24 12:01:00,
2013-01-24 06:06:00,40.9,30.8,30.30,ENE,63,9.0,12.0,67,0.00,,---,0.00,0.00,VWS V14.00,2013-01-24 12:06:00,
2013-01-24 06:11:00,40.8,31.1,30.30,NE,53,0.0,12.0,68,0.00,,---,0.00,0.00,VWS V14.00,2013-01-24 12:11:00,
2013-01-24 06:16:00,40.8,31.4,30.30,ENE,57,2.0,12.0,69,0.00,,---,0.00,0.00,VWS V14.00,2013-01-24 12:16:00,
2013-01-24 06:21:00,40.7,31.0,30.31,NNE,23,5.0,12.0,68,0.00,,---,0.00,0.00,VWS V14.00,2013-01-24 12:21:00,
2013-01-24 06:26:00,40.6,28.6,30.31,North,355,2.0,12.0,62,0.00,,---,0.00,0.00,VWS V14.00,2013-01-24 12:26:00,
2013-01-24 06:30:00,40.6,28.6,30.32,NE,56,0.0,12.0,62,0.00,,---,0.00,0.00,VWS V14.00,2013-01-24 12:30:00,
2013-01-24 06:31:00,40.5,28.1,30.33,NE,44,6.0,10.0,61,0.00,,---,0.00,0.00,VWS V14.00,2013-01-24 12:31:00,
2013-01-24 06:36:00,40.4,28.0,30.33,NE,34,0.0,10.0,61,0.00,,---,0.00,0.00,VWS V14.00,2013-01-24 12:36:00,
2013-01-24 06:41:00,40.3,27.5,30.33,NE,36,6.0,10.0,60,0.00,,---,0.00,0.00,VWS V14.00,2013-01-24 12:41:00,
2013-01-24 06:46:00,40.2,27.0,30.33,NE,52,4.0,10.0,59,0.00,,---,0.00,0.00,VWS V14.00,2013-01-24 12:46:00,
2013-01-24 06:51:00,40.2,27.0,30.33,NE,53,0.0,10.0,59,0.00,,---,0.00,0.00,VWS V14.00,2013-01-24 12:51:00,
2013-01-24 06:56:00,40.1,26.1,30.33,ENE,76,5.0,12.0,57,0.00,,---,0.00,0.00,VWS V14.00,2013-01-24 12:56:00,
2013-01-24 07:00:00,40.1,26.1,30.33,ENE,69,3.0,12.0,57,0.00,,---,0.00,0.00,VWS V14.00,2013-01-24 13:00:00,
2013-01-24 07:01:00,40.0,26.0,30.33,NNE,22,0.0,9.0,57,0.00,,---,0.00,0.00,VWS V14.00,2013-01-24 13:01:00,
2013-01-24 07:06:00,39.8,25.8,30.33,NE,53,5.0,9.0,57,0.00,,---,0.00,5.00,VWS V14.00,2013-01-24 13:06:00,
2013-01-24 07:11:00,39.7,25.3,30.33,NE,42,0.0,9.0,56,0.00,,---,0.00,7.00,VWS V14.00,2013-01-24 13:11:00,
2013-01-24 07:16:00,39.5,21.9,30.34,NE,47,10.0,12.0,49,0.00,,---,0.00,12.00,VWS V14.00,2013-01-24 13:16:00,
2013-01-24 07:21:00,39.3,22.7,30.34,NE,49,2.0,12.0,51,0.00,,---,0.00,18.00,VWS V14.00,2013-01-24 13:21:00,
2013-01-24 07:26:00,39.3,21.8,30.34,NE,47,5.0,12.0,49,0.00,,---,0.00,19.00,VWS V14.00,2013-01-24 13:26:00,
2013-01-24 07:30:00,39.3,21.8,30.34,NNE,19,0.0,12.0,49,0.00,,---,0.00,19.00,VWS V14.00,2013-01-24 13:30:00,
2013-01-24 07:31:00,39.2,21.7,30.34,NE,55,3.0,8.0,49,0.00,,---,0.00,26.00,VWS V14.00,2013-01-24 13:31:00,
2013-01-24 07:36:00,39.2,21.7,30.35,NE,41,0.0,8.0,49,0.00,,---,0.00,28.00,VWS V14.00,2013-01-24 13:36:00,
2013-01-24 07:41:00,39.2,22.6,30.35,ENE,61,0.0,8.0,51,0.00,,---,0.00,33.00,VWS V14.00,2013-01-24 13:41:00,
2013-01-24 07:46:00,39.2,22.1,30.35,ENE,59,3.0,8.0,50,0.00,,---,0.00,33.00,VWS V14.00,2013-01-24 13:46:00,
2013-01-24 07:51:00,39.0,21.5,30.35,ENE,57,6.0,12.0,49,0.00,,---,0.00,49.00,VWS V14.00,2013-01-24 13:51:00,
2013-01-24 07:56:00,38.8,22.2,30.35,NE,55,5.0,12.0,51,0.00,,---,0.00,63.00,VWS V14.00,2013-01-24 13:56:00,
2013-01-24 08:00:00,38.8,22.7,30.35,NNE,33,2.0,12.0,52,0.00,,---,0.00,65.00,VWS V14.00,2013-01-24 14:00:00,
2013-01-24 08:01:00,38.6,22.5,30.35,NE,34,4.0,9.0,52,0.00,,---,0.00,76.00,VWS V14.00,2013-01-24 14:01:00,
2013-01-24 08:06:00,38.6,23.4,30.35,NE,54,13.0,13.0,54,0.00,,---,0.00,77.00,VWS V14.00,2013-01-24 14:06:00,
2013-01-24 08:11:00,38.5,22.9,30.35,NE,52,5.0,14.0,53,0.00,,---,0.00,84.00,VWS V14.00,2013-01-24 14:11:00,
2013-01-24 08:16:00,38.4,22.8,30.36,NE,44,0.0,14.0,53,0.00,,---,0.00,90.00,VWS V14.00,2013-01-24 14:16:00,
2013-01-24 08:21:00,38.5,23.3,30.36,NE,51,5.0,14.0,54,0.00,,---,0.00,72.00,VWS V14.00,2013-01-24 14:21:00,
2013-01-24 08:26:00,38.5,23.3,30.36,NNE,28,6.0,14.0,54,0.00,,---,0.00,95.00,VWS V14.00,2013-01-24 14:26:00,
2013-01-24 08:30:00,38.5,23.8,30.36,ENE,68,6.0,14.0,55,0.00,,---,0.00,109.00,VWS V14.00,2013-01-24 14:30:00,
2013-01-24 08:31:00,38.6,23.8,30.36,NE,53,0.0,6.0,55,0.00,,---,0.00,148.00,VWS V14.00,2013-01-24 14:31:00,
2013-01-24 08:36:00,38.8,24.0,30.37,NE,54,0.0,10.0,55,0.00,,---,0.00,160.00,VWS V14.00,2013-01-24 14:36:00,
2013-01-24 08:41:00,39.3,24.9,30.37,ENE,57,5.0,10.0,56,0.00,,---,0.00,95.00,VWS V14.00,2013-01-24 14:41:00,
2013-01-24 08:46:00,39.0,23.8,30.37,ENE,58,10.0,14.0,54,0.00,,---,0.00,91.00,VWS V14.00,2013-01-24 14:46:00,
2013-01-24 08:51:00,38.8,23.6,30.37,ENE,59,4.0,14.0,54,0.00,,---,0.00,111.00,VWS V14.00,2013-01-24 14:51:00,
2013-01-24 08:56:00,38.8,23.6,30.38,NNE,26,0.0,14.0,54,0.00,,---,0.00,120.00,VWS V14.00,2013-01-24 14:56:00,
2013-01-24 09:00:00,38.8,23.6,30.38,ENE,61,5.0,14.0,54,0.00,,---,0.00,134.00,VWS V14.00,2013-01-24 15:00:00,
2013-01-24 09:01:00,38.9,23.7,30.37,ENE,69,3.0,10.0,54,0.00,,---,0.00,102.00,VWS V14.00,2013-01-24 15:01:00,
2013-01-24 09:06:00,38.9,23.7,30.38,NNE,32,0.0,12.0,54,0.00,,---,0.00,121.00,VWS V14.00,2013-01-24 15:06:00,
2013-01-24 09:11:00,39.0,24.6,30.38,North,5,0.0,12.0,56,0.00,,---,0.00,123.00,VWS V14.00,2013-01-24 15:11:00,
2013-01-24 09:16:00,39.2,24.4,30.38,NNW,339,2.0,12.0,55,0.00,,---,0.00,102.00,VWS V14.00,2013-01-24 15:16:00,
2013-01-24 09:21:00,39.1,24.3,30.38,NE,52,0.0,12.0,55,0.00,,---,0.00,120.00,VWS V14.00,2013-01-24 15:21:00,
2013-01-24 09:26:00,39.2,24.8,30.38,ENE,65,1.0,12.0,56,0.00,,---,0.00,132.00,VWS V14.00,2013-01-24 15:26:00,
2013-01-24 09:30:00,39.2,24.4,30.38,NNE,13,3.0,12.0,55,0.00,,---,0.00,142.00,VWS V14.00,2013-01-24 15:30:00,
2013-01-24 09:31:00,39.1,24.3,30.38,NE,36,1.0,10.0,55,0.00,,---,0.00,151.00,VWS V14.00,2013-01-24 15:31:00,
2013-01-24 09:36:00,39.0,23.8,30.39,NNE,18,3.0,10.0,54,0.00,,---,0.00,113.00,VWS V14.00,2013-01-24 15:36:00,
2013-01-24 09:41:00,38.9,24.1,30.39,NE,43,0.0,10.0,55,0.00,,---,0.00,95.00,VWS V14.00,2013-01-24 15:41:00,
2013-01-24 09:46:00,38.9,24.6,30.39,NE,35,9.0,10.0,56,0.00,,---,0.00,100.00,VWS V14.00,2013-01-24 15:46:00,
2013-01-24 09:51:00,38.8,24.5,30.39,NE,44,10.0,10.0,56,0.00,,---,0.00,118.00,VWS V14.00,2013-01-24 15:51:00,
2013-01-24 09:56:00,38.8,24.5,30.39,ENE,69,3.0,11.0,56,0.00,,---,0.00,137.00,VWS V14.00,2013-01-24 15:56:00,
2013-01-24 10:00:00,38.7,24.8,30.39,NE,43,7.0,11.0,57,0.00,,---,0.00,148.00,VWS V14.00,2013-01-24 16:00:00,
2013-01-24 10:01:00,38.8,24.9,30.38,NE,46,6.0,9.0,57,0.00,,---,0.00,178.00,VWS V14.00,2013-01-24 16:01:00,
2013-01-24 10:06:00,38.9,25.4,30.38,NE,52,3.0,9.0,58,0.00,,---,0.00,195.00,VWS V14.00,2013-01-24 16:06:00,
2013-01-24 10:11:00,39.1,24.7,30.39,NE,53,2.0,9.0,56,0.00,,---,0.00,185.00,VWS V14.00,2013-01-24 16:11:00,
2013-01-24 10:16:00,39.4,25.5,30.38,ENE,57,0.0,9.0,57,0.00,,---,0.00,218.00,VWS V14.00,2013-01-24 16:16:00,
2013-01-24 10:21:00,39.6,24.8,30.39,East,96,3.0,9.0,55,0.00,,---,0.00,241.00,VWS V14.00,2013-01-24 16:21:00,
2013-01-24 10:26:00,39.8,25.4,30.39,NE,53,3.0,9.0,56,0.00,,---,0.00,227.00,VWS V14.00,2013-01-24 16:26:00,
2013-01-24 10:30:00,39.8,25.4,30.39,ENE,61,3.0,9.0,56,0.00,,---,0.00,220.00,VWS V14.00,2013-01-24 16:30:00,
2013-01-24 10:31:00,39.9,24.6,30.39,NE,47,0.0,12.0,54,0.00,,---,0.00,193.00,VWS V14.00,2013-01-24 16:31:00,
2013-01-24 10:36:00,40.0,24.7,30.39,NE,52,2.0,12.0,54,0.00,,---,0.00,214.00,VWS V14.00,2013-01-24 16:36:00,
2013-01-24 10:41:00,40.0,25.1,30.39,NNE,26,0.0,12.0,55,0.00,,---,0.00,230.00,VWS V14.00,2013-01-24 16:41:00,
2013-01-24 10:46:00,40.1,25.2,30.39,ENE,64,3.0,12.0,55,0.00,,---,0.00,192.00,VWS V14.00,2013-01-24 16:46:00,
2013-01-24 10:51:00,40.1,24.8,30.39,ENE,71,0.0,12.0,54,0.00,,---,0.00,218.00,VWS V14.00,2013-01-24 16:51:00,
2013-01-24 10:56:00,40.2,24.9,30.39,NNW,339,0.0,12.0,54,0.00,,---,0.00,257.00,VWS V14.00,2013-01-24 16:56:00,
2013-01-24 11:00:00,40.2,24.5,30.39,NE,41,0.0,12.0,53,0.00,,---,0.00,264.00,VWS V14.00,2013-01-24 17:00:00,
2013-01-24 11:01:00,40.4,25.1,30.39,ENE,57,2.0,7.0,54,0.00,,---,0.00,253.00,VWS V14.00,2013-01-24 17:01:00,
2013-01-24 11:06:00,40.5,24.7,30.39,ENE,57,9.0,10.0,53,0.00,,---,0.00,244.00,VWS V14.00,2013-01-24 17:06:00,
2013-01-24 11:11:00,40.4,25.1,30.39,NE,42,0.0,16.0,54,0.00,,---,0.00,257.00,VWS V14.00,2013-01-24 17:11:00,
2013-01-24 11:16:00,40.5,24.7,30.39,NE,55,0.0,16.0,53,0.00,,---,0.00,234.00,VWS V14.00,2013-01-24 17:16:00,
2013-01-24 11:21:00,40.6,24.8,30.39,ENE,58,0.0,16.0,53,0.00,,---,0.00,271.00,VWS V14.00,2013-01-24 17:21:00,
2013-01-24 11:26:00,40.7,24.9,30.38,NE,41,6.0,16.0,53,0.00,,---,0.00,332.00,VWS V14.00,2013-01-24 17:26:00,
2013-01-24 11:30:00,40.7,24.5,30.38,NNE,33,4.0,16.0,52,0.00,,---,0.00,329.00,VWS V14.00,2013-01-24 17:30:00,
2013-01-24 11:31:00,40.7,25.4,30.38,NE,49,3.0,8.0,54,0.00,,---,0.00,315.00,VWS V14.00,2013-01-24 17:31:00,
2013-01-24 11:36:00,41.1,25.3,30.38,NNE,27,0.0,9.0,53,0.00,,---,0.00,274.00,VWS V14.00,2013-01-24 17:36:00,
2013-01-24 11:41:00,41.0,24.7,30.37,ENE,57,0.0,10.0,52,0.00,,---,0.00,316.00,VWS V14.00,2013-01-24 17:41:00,
2013-01-24 11:46:00,40.9,24.6,30.37,ENE,60,4.0,16.0,52,0.00,,---,0.00,285.00,VWS V14.00,2013-01-24 17:46:00,
2013-01-24 11:51:00,40.9,25.1,30.37,NE,54,3.0,16.0,53,0.00,,---,0.00,315.00,VWS V14.00,2013-01-24 17:51:00,
2013-01-24 11:56:00,41.0,24.7,30.36,ENE,59,4.0,16.0,52,0.00,,---,0.00,318.00,VWS V14.00,2013-01-24 17:56:00,
2013-01-24 12:00:00,41.0,24.7,30.36,ENE,59,5.0,16.0,52,0.00,,---,0.00,323.00,VWS V14.00,2013-01-24 18:00:00,
2013-01-24 12:01:00,41.0,24.7,30.35,ENE,67,6.0,10.0,52,0.00,,---,0.00,350.00,VWS V14.00,2013-01-24 18:01:00,
2013-01-24 12:06:00,41.2,25.4,30.35,ENE,59,0.0,12.0,53,0.00,,---,0.00,334.00,VWS V14.00,2013-01-24 18:06:00,
2013-01-24 12:11:00,41.6,26.2,30.34,NE,45,3.0,12.0,54,0.00,,---,0.00,397.00,VWS V14.00,2013-01-24 18:11:00,
2013-01-24 12:16:00,42.0,25.2,30.34,ENE,57,0.0,12.0,51,0.00,,---,0.00,422.00,VWS V14.00,2013-01-24 18:16:00,
2013-01-24 12:21:00,42.2,25.9,30.34,East,101,3.0,12.0,52,0.00,,---,0.00,362.00,VWS V14.00,2013-01-24 18:21:00,
2013-01-24 12:26:00,42.3,25.5,30.34,NNE,28,0.0,12.0,51,0.00,,---,0.00,404.00,VWS V14.00,2013-01-24 18:26:00,
2013-01-24 12:30:00,42.3,25.5,30.34,NE,49,3.0,12.0,51,0.00,,---,0.00,494.00,VWS V14.00,2013-01-24 18:30:00,
2013-01-24 12:31:00,42.5,26.1,30.34,ENE,57,3.0,10.0,52,0.00,,---,0.00,617.00,VWS V14.00,2013-01-24 18:31:00,
2013-01-24 12:35:00,43.2,26.8,30.33,NE,44,2.0,10.0,52,0.00,,---,0.00,578.00,VWS V14.00,2013-01-24 18:35:00,
2013-01-24 12:40:00,43.6,26.2,30.33,NE,49,7.0,10.0,50,0.00,,---,0.00,513.00,VWS V14.00,2013-01-24 18:40:00,
2013-01-24 12:45:00,43.5,26.1,30.33,ENE,67,3.0,11.0,50,0.00,,---,0.00,431.00,VWS V14.00,2013-01-24 18:45:00,
2013-01-24 12:50:00,43.4,26.0,30.33,NE,48,2.0,11.0,50,0.00,,---,0.00,529.00,VWS V14.00,2013-01-24 18:50:00,
2013-01-24 12:55:00,43.6,26.2,30.33,NNE,16,0.0,11.0,50,0.00,,---,0.00,612.00,VWS V14.00,2013-01-24 18:55:00,
2013-01-24 13:00:00,43.6,26.2,30.33,ENE,59,0.0,11.0,50,0.00,,---,0.00,536.00,VWS V14.00,2013-01-24 19:00:00,
2013-01-24 13:01:00,43.7,27.2,30.33,NE,51,6.0,7.0,52,0.00,,---,0.00,485.00,VWS V14.00,2013-01-24 19:01:00,
2013-01-24 13:05:00,44.0,27.0,30.32,NE,49,0.0,10.0,51,0.00,,---,0.00,483.00,VWS V14.00,2013-01-24 19:05:00,
2013-01-24 13:10:00,44.0,27.0,30.33,ENE,61,0.0,10.0,51,0.00,,---,0.00,327.00,VWS V14.00,2013-01-24 19:10:00,
2013-01-24 13:15:00,43.8,26.9,30.32,NNE,30,1.0,12.0,51,0.00,,---,0.00,396.00,VWS V14.00,2013-01-24 19:15:00,
2013-01-24 13:20:00,43.7,26.8,30.32,ENE,69,7.0,12.0,51,0.00,,---,0.00,396.00,VWS V14.00,2013-01-24 19:20:00,
2013-01-24 13:25:00,43.7,27.2,30.32,NE,50,0.0,12.0,52,0.00,,---,0.00,418.00,VWS V14.00,2013-01-24 19:25:00,
2013-01-24 13:30:00,44.1,27.6,30.32,NNE,30,0.0,4.0,52,0.00,,---,0.00,510.00,VWS V14.00,2013-01-24 19:30:00,
2013-01-24 13:35:00,44.7,27.7,30.32,NNE,22,1.0,7.0,51,0.00,,---,0.00,584.00,VWS V14.00,2013-01-24 19:35:00,
2013-01-24 13:40:00,44.7,27.7,30.32,ENE,58,9.0,11.0,51,0.00,,---,0.00,468.00,VWS V14.00,2013-01-24 19:40:00,
2013-01-24 13:45:00,44.3,27.3,30.31,NNE,28,0.0,11.0,51,0.00,,---,0.00,443.00,VWS V14.00,2013-01-24 19:45:00,
2013-01-24 13:50:00,44.4,27.4,30.31,NE,55,2.0,11.0,51,0.00,,---,0.00,429.00,VWS V14.00,2013-01-24 19:50:00,
2013-01-24 13:55:00,44.0,27.0,30.30,NE,47,0.0,11.0,51,0.00,,---,0.00,179.00,VWS V14.00,2013-01-24 19:55:00,
2013-01-24 14:00:00,43.6,27.1,30.30,NE,53,3.0,7.0,52,0.00,,---,0.00,209.00,VWS V14.00,2013-01-24 20:00:00,
2013-01-24 14:05:00,43.1,27.1,30.30,ENE,60,0.0,9.0,53,0.00,,---,0.00,141.00,VWS V14.00,2013-01-24 20:05:00,
2013-01-24 14:10:00,43.0,27.5,30.30,NE,39,6.0,9.0,54,0.00,,---,0.00,172.00,VWS V14.00,2013-01-24 20:10:00,
2013-01-24 14:15:00,43.1,27.1,30.30,NE,52,4.0,10.0,53,0.00,,---,0.00,369.00,VWS V14.00,2013-01-24 20:15:00,
2013-01-24 14:20:00,43.6,28.1,30.30,NE,54,4.0,10.0,54,0.00,,---,0.00,504.00,VWS V14.00,2013-01-24 20:20:00,
2013-01-24 14:25:00,43.9,27.9,30.30,ENE,57,4.0,13.0,53,0.00,,---,0.00,250.00,VWS V14.00,2013-01-24 20:25:00,
2013-01-24 14:30:00,43.7,27.7,30.30,ENE,64,3.0,7.0,53,0.00,,---,0.00,174.00,VWS V14.00,2013-01-24 20:30:00,
2013-01-24 14:35:00,43.6,28.1,30.30,NE,46,0.0,7.0,54,0.00,,---,0.00,230.00,VWS V14.00,2013-01-24 20:35:00,
2013-01-24 14:40:00,43.8,28.2,30.29,ENE,75,0.0,10.0,54,0.00,,---,0.00,190.00,VWS V14.00,2013-01-24 20:40:00,
2013-01-24 14:45:00,43.9,27.4,30.29,ENE,59,1.0,10.0,52,0.00,,---,0.00,146.00,VWS V14.00,2013-01-24 20:45:00,
2013-01-24 14:50:00,43.8,27.3,30.30,NE,55,0.0,10.0,52,0.00,,---,0.00,142.00,VWS V14.00,2013-01-24 20:50:00,
2013-01-24 14:55:00,43.8,27.8,30.30,NE,51,0.0,10.0,53,0.00,,---,0.00,132.00,VWS V14.00,2013-01-24 20:55:00,
2013-01-24 15:00:00,43.9,27.4,30.30,NE,52,7.0,9.0,52,0.00,,---,0.00,149.00,VWS V14.00,2013-01-24 21:00:00,
2013-01-24 15:05:00,43.7,27.7,30.30,NE,42,0.0,11.0,53,0.00,,---,0.00,134.00,VWS V14.00,2013-01-24 21:05:00,
2013-01-24 15:10:00,43.7,27.2,30.31,NE,42,0.0,11.0,52,0.00,,---,0.00,109.00,VWS V14.00,2013-01-24 21:10:00,
2013-01-24 15:15:00,43.6,27.1,30.31,ENE,71,0.0,11.0,52,0.00,,---,0.00,70.00,VWS V14.00,2013-01-24 21:15:00,
2013-01-24 15:20:00,43.6,26.7,30.30,ENE,72,4.0,11.0,51,0.00,,---,0.00,88.00,VWS V14.00,2013-01-24 21:20:00,
2013-01-24 15:25:00,43.5,26.1,30.30,ENE,61,0.0,11.0,50,0.00,,---,0.00,105.00,VWS V14.00,2013-01-24 21:25:00,
2013-01-24 15:30:00,43.5,26.6,30.29,NE,45,0.0,6.0,51,0.00,,---,0.00,111.00,VWS V14.00,2013-01-24 21:30:00,
2013-01-24 15:35:00,43.4,26.0,30.29,ENE,58,0.0,7.0,50,0.00,,---,0.00,83.00,VWS V14.00,2013-01-24 21:35:00,
2013-01-24 15:40:00,43.4,26.0,30.29,East,81,5.0,7.0,50,0.00,,---,0.00,98.00,VWS V14.00,2013-01-24 21:40:00,
2013-01-24 15:45:00,43.4,26.0,30.29,ENE,57,5.0,7.0,50,0.00,,---,0.00,95.00,VWS V14.00,2013-01-24 21:45:00,
2013-01-24 15:50:00,43.4,26.0,30.29,East,89,4.0,9.0,50,0.00,,---,0.00,77.00,VWS V14.00,2013-01-24 21:50:00,
2013-01-24 15:55:00,43.3,25.4,30.28,NE,50,7.0,9.0,49,0.00,,---,0.00,62.00,VWS V14.00,2013-01-24 21:55:00,
2013-01-24 16:00:00,43.2,25.4,30.28,NNE,15,3.0,5.0,49,0.00,,---,0.00,46.00,VWS V14.00,2013-01-24 22:00:00,
2013-01-24 16:05:00,43.1,25.3,30.28,ENE,65,2.0,8.0,49,0.00,,---,0.00,30.00,VWS V14.00,2013-01-24 22:05:00,
2013-01-24 16:10:00,43.1,25.7,30.28,East,80,0.0,8.0,50,0.00,,---,0.00,39.00,VWS V14.00,2013-01-24 22:10:00,
2013-01-24 16:15:00,43.2,26.3,30.28,NE,56,2.0,8.0,51,0.00,,---,0.00,35.00,VWS V14.00,2013-01-24 22:15:00,
2013-01-24 16:20:00,43.1,25.7,30.28,NNE,30,0.0,8.0,50,0.00,,---,0.00,39.00,VWS V14.00,2013-01-24 22:20:00,
2013-01-24 16:25:00,43.1,25.7,30.28,ENE,57,4.0,8.0,50,0.00,,---,0.00,40.00,VWS V14.00,2013-01-24 22:25:00,
2013-01-24 16:30:00,43.1,26.7,30.28,NE,54,0.0,7.0,52,0.00,,---,0.00,32.00,VWS V14.00,2013-01-24 22:30:00,
2013-01-24 16:35:00,43.0,26.1,30.28,ENE,64,0.0,7.0,51,0.00,,---,0.00,16.00,VWS V14.00,2013-01-24 22:35:00,
2013-01-24 16:40:00,43.0,26.1,30.27,NE,46,0.0,7.0,51,0.00,,---,0.00,11.00,VWS V14.00,2013-01-24 22:40:00,
2013-01-24 16:45:00,42.9,27.0,30.26,ENE,65,2.0,7.0,53,0.00,,---,0.00,11.00,VWS V14.00,2013-01-24 22:45:00,
2013-01-24 16:50:00,42.9,26.5,30.26,NE,55,0.0,8.0,52,0.00,,---,0.00,7.00,VWS V14.00,2013-01-24 22:50:00,
2013-01-24 16:55:00,42.9,26.5,30.26,ENE,61,0.0,8.0,52,0.00,,---,0.00,7.00,VWS V14.00,2013-01-24 22:55:00,
2013-01-24 17:00:00,42.9,26.5,30.26,NE,50,0.0,4.0,52,0.00,,---,0.00,5.00,VWS V14.00,2013-01-24 23:00:00,
2013-01-24 17:05:00,42.9,26.0,30.27,NE,53,6.0,6.0,51,0.00,,---,0.00,0.00,VWS V14.00,2013-01-24 23:05:00,
2013-01-24 17:10:00,42.9,26.0,30.27,East,88,4.0,6.0,51,0.00,,---,0.00,0.00,VWS V14.00,2013-01-24 23:10:00,
2013-01-24 17:15:00,43.0,26.6,30.26,NE,55,0.0,6.0,52,0.00,,---,0.00,0.00,VWS V14.00,2013-01-24 23:15:00,
2013-01-24 17:20:00,43.0,26.6,30.26,ENE,58,0.0,6.0,52,0.00,,---,0.00,0.00,VWS V14.00,2013-01-24 23:20:00,
2013-01-24 17:25:00,43.0,26.6,30.26,ENE,60,3.0,6.0,52,0.00,,---,0.00,0.00,VWS V14.00,2013-01-24 23:25:00,
2013-01-24 17:30:00,43.1,26.7,30.26,NE,45,0.0,6.0,52,0.00,,---,0.00,0.00,VWS V14.00,2013-01-24 23:30:00,
2013-01-24 17:35:00,43.0,26.6,30.26,NE,42,4.0,6.0,52,0.00,,---,0.00,0.00,VWS V14.00,2013-01-24 23:35:00,
2013-01-24 17:40:00,43.0,26.6,30.26,NE,51,0.0,6.0,52,0.00,,---,0.00,0.00,VWS V14.00,2013-01-24 23:40:00,
2013-01-24 17:45:00,43.0,27.0,30.26,NE,51,0.0,6.0,53,0.00,,---,0.00,0.00,VWS V14.00,2013-01-24 23:45:00,
2013-01-24 17:50:00,42.9,26.5,30.26,ENE,77,0.0,6.0,52,0.00,,---,0.00,0.00,VWS V14.00,2013-01-24 23:50:00,
2013-01-24 17:55:00,42.9,26.0,30.26,NE,55,4.0,7.0,51,0.00,,---,0.00,0.00,VWS V14.00,2013-01-24 23:55:00,
2013-01-24 18:00:00,42.7,26.3,30.26,NE,50,4.0,5.0,52,0.00,,---,0.00,0.00,VWS V14.00,2013-01-25 00:00:00,
2013-01-24 18:05:00,42.7,26.8,30.26,ENE,63,2.0,5.0,53,0.00,,---,0.00,0.00,VWS V14.00,2013-01-25 00:05:00,
2013-01-24 18:10:00,42.6,26.7,30.26,NNW,346,0.0,5.0,53,0.00,,---,0.00,0.00,VWS V14.00,2013-01-25 00:10:00,
2013-01-24 18:15:00,42.6,26.7,30.26,ENE,78,3.0,7.0,53,0.00,,---,0.00,0.00,VWS V14.00,2013-01-25 00:15:00,
2013-01-24 18:20:00,42.6,26.2,30.26,East,90,6.0,7.0,52,0.00,,---,0.00,0.00,VWS V14.00,2013-01-25 00:20:00,
2013-01-24 18:25:00,42.5,26.6,30.26,ENE,59,0.0,7.0,53,0.00,,---,0.00,0.00,VWS V14.00,2013-01-25 00:25:00,
2013-01-24 18:30:00,42.5,26.6,30.26,North,9,2.0,5.0,53,0.00,,---,0.00,0.00,VWS V14.00,2013-01-25 00:30:00,
2013-01-24 18:35:00,42.5,27.0,30.26,ENE,66,4.0,6.0,54,0.00,,---,0.00,0.00,VWS V14.00,2013-01-25 00:35:00,
2013-01-24 18:40:00,42.6,27.1,30.26,ENE,58,0.0,6.0,54,0.00,,---,0.00,0.00,VWS V14.00,2013-01-25 00:40:00,
2013-01-24 18:45:00,42.6,26.7,30.26,NE,53,1.0,6.0,53,0.00,,---,0.00,0.00,VWS V14.00,2013-01-25 00:45:00,
2013-01-24 18:50:00,42.7,26.8,30.27,NE,56,0.0,6.0,53,0.00,,---,0.00,0.00,VWS V14.00,2013-01-25 00:50:00,
2013-01-24 18:55:00,42.7,26.8,30.27,NE,38,0.0,6.0,53,0.00,,---,0.00,0.00,VWS V14.00,2013-01-25 00:55:00,
2013-01-24 19:00:00,42.7,26.3,30.26,ENE,67,5.0,6.0,52,0.00,,---,0.00,0.00,VWS V14.00,2013-01-25 01:00:00,
2013-01-24 19:05:00,42.7,26.3,30.26,ENE,68,1.0,6.0,52,0.00,,---,0.00,0.00,VWS V14.00,2013-01-25 01:05:00,
2013-01-24 19:10:00,42.7,26.3,30.26,ENE,61,2.0,6.0,52,0.00,,---,0.00,0.00,VWS V14.00,2013-01-25 01:10:00,
2013-01-24 19:15:00,42.7,26.3,30.26,NE,48,0.0,9.0,52,0.00,,---,0.00,0.00,VWS V14.00,2013-01-25 01:15:00,
2013-01-24 19:20:00,42.7,26.3,30.25,ENE,67,4.0,9.0,52,0.00,,---,0.00,0.00,VWS V14.00,2013-01-25 01:20:00,
2013-01-24 19:25:00,42.7,26.3,30.25,East,80,2.0,9.0,52,0.00,,---,0.00,0.00,VWS V14.00,2013-01-25 01:25:00,
2013-01-24 19:30:00,42.7,26.3,30.25,NE,41,0.0,6.0,52,0.00,,---,0.00,0.00,VWS V14.00,2013-01-25 01:30:00,
2013-01-24 19:35:00,42.6,26.2,30.25,NE,46,0.0,6.0,52,0.00,,---,0.00,0.00,VWS V14.00,2013-01-25 01:35:00,
2013-01-24 19:40:00,42.6,25.8,30.25,ENE,62,0.0,6.0,51,0.00,,---,0.00,0.00,VWS V14.00,2013-01-25 01:40:00,
2013-01-24 19:45:00,42.6,25.8,30.25,East,93,0.0,6.0,51,0.00,,---,0.00,0.00,VWS V14.00,2013-01-25 01:45:00,
2013-01-24 19:50:00,42.5,26.1,30.25,ENE,61,0.0,6.0,52,0.00,,---,0.00,0.00,VWS V14.00,2013-01-25 01:50:00,
2013-01-24 19:55:00,42.5,26.1,30.25,NE,50,3.0,6.0,52,0.00,,---,0.00,0.00,VWS V14.00,2013-01-25 01:55:00,
2013-01-24 20:00:00,42.5,25.7,30.25,ENE,73,2.0,4.0,51,0.00,,---,0.00,0.00,VWS V14.00,2013-01-25 02:00:00,
2013-01-24 20:05:00,42.4,26.0,30.25,ENE,62,0.0,5.0,52,0.00,,---,0.00,0.00,VWS V14.00,2013-01-25 02:05:00,
2013-01-24 20:10:00,42.4,25.6,30.24,NE,49,4.0,5.0,51,0.00,,---,0.00,0.00,VWS V14.00,2013-01-25 02:10:00,
2013-01-24 20:15:00,42.4,25.6,30.24,ENE,77,0.0,7.0,51,0.00,,---,0.00,0.00,VWS V14.00,2013-01-25 02:15:00,
2013-01-24 20:20:00,42.4,26.0,30.24,East,98,0.0,7.0,52,0.00,,---,0.00,0.00,VWS V14.00,2013-01-25 02:20:00,
2013-01-24 20:25:00,42.4,26.5,30.24,ENE,67,0.0,7.0,53,0.00,,---,0.00,0.00,VWS V14.00,2013-01-25 02:25:00,
2013-01-24 20:30:00,42.3,26.4,30.23,East,94,0.0,0.0,53,0.00,,---,0.00,0.00,VWS V14.00,2013-01-25 02:30:00,
2013-01-24 20:35:00,42.3,26.9,30.23,East,87,0.0,1.0,54,0.00,,---,0.00,0.00,VWS V14.00,2013-01-25 02:35:00,
2013-01-24 20:40:00,42.3,25.9,30.22,NE,54,0.0,1.0,52,0.00,,---,0.00,0.00,VWS V14.00,2013-01-25 02:40:00,
2013-01-24 20:45:00,42.3,26.4,30.22,ENE,66,0.0,1.0,53,0.00,,---,0.00,0.00,VWS V14.00,2013-01-25 02:45:00,
2013-01-24 20:50:00,42.3,26.9,30.22,ESE,107,0.0,1.0,54,0.00,,---,0.00,0.00,VWS V14.00,2013-01-25 02:50:00,
2013-01-24 20:55:00,42.3,26.9,30.22,ENE,61,0.0,3.0,54,0.00,,---,0.00,0.00,VWS V14.00,2013-01-25 02:55:00,
2013-01-24 21:00:00,42.2,26.3,30.22,East,83,0.0,4.0,53,0.00,,---,0.00,0.00,VWS V14.00,2013-01-25 03:00:00,
2013-01-24 21:05:00,42.3,26.4,30.21,East,97,4.0,4.0,53,0.00,,---,0.00,0.00,VWS V14.00,2013-01-25 03:05:00,
2013-01-24 21:10:00,42.2,26.8,30.21,East,84,0.0,4.0,54,0.00,,---,0.00,0.00,VWS V14.00,2013-01-25 03:10:00,
2013-01-24 21:15:00,42.2,26.3,30.22,NE,37,0.0,4.0,53,0.00,,---,0.00,0.00,VWS V14.00,2013-01-25 03:15:00,
2013-01-24 21:20:00,42.2,26.3,30.21,NE,53,0.0,4.0,53,0.00,,---,0.00,0.00,VWS V14.00,2013-01-25 03:20:00,
2013-01-24 21:25:00,42.2,26.8,30.21,NE,48,0.0,4.0,54,0.00,,---,0.00,0.00,VWS V14.00,2013-01-25 03:25:00,
2013-01-24 21:30:00,42.2,26.8,30.21,NE,34,0.0,0.0,54,0.00,,---,0.00,0.00,VWS V14.00,2013-01-25 03:30:00,
2013-01-24 21:35:00,42.3,26.4,30.21,NE,40,0.0,0.0,53,0.00,,---,0.00,0.00,VWS V14.00,2013-01-25 03:35:00,
2013-01-24 21:40:00,42.2,26.3,30.21,NE,34,0.0,3.0,53,0.00,,---,0.00,0.00,VWS V14.00,2013-01-25 03:40:00,
2013-01-24 21:45:00,42.3,26.4,30.21,ENE,61,3.0,4.0,53,0.00,,---,0.00,0.00,VWS V14.00,2013-01-25 03:45:00,
2013-01-24 21:50:00,42.3,26.9,30.20,ENE,59,0.0,4.0,54,0.00,,---,0.00,0.00,VWS V14.00,2013-01-25 03:50:00,
2013-01-24 21:55:00,42.3,26.9,30.20,East,88,5.0,5.0,54,0.00,,---,0.00,0.00,VWS V14.00,2013-01-25 03:55:00,
2013-01-24 22:00:00,42.3,26.9,30.19,ESE,105,0.0,5.0,54,0.00,,---,0.00,0.00,VWS V14.00,2013-01-25 04:00:00,
2013-01-24 22:05:00,42.2,26.8,30.19,ENE,67,3.0,6.0,54,0.00,,---,0.00,0.00,VWS V14.00,2013-01-25 04:05:00,
2013-01-24 22:10:00,42.2,26.3,30.19,East,96,3.0,6.0,53,0.00,,---,0.00,0.00,VWS V14.00,2013-01-25 04:10:00,
2013-01-24 22:15:00,42.2,26.8,30.19,NE,53,0.0,6.0,54,0.00,,---,0.00,0.00,VWS V14.00,2013-01-25 04:15:00,
2013-01-24 22:20:00,42.3,26.4,30.19,ENE,73,4.0,6.0,53,0.00,,---,0.00,0.00,VWS V14.00,2013-01-25 04:20:00,
2013-01-24 22:25:00,42.3,26.4,30.19,East,84,3.0,6.0,53,0.00,,---,0.00,0.00,VWS V14.00,2013-01-25 04:25:00,
2013-01-24 22:30:00,42.3,26.9,30.19,ENE,76,4.0,4.0,54,0.00,,---,0.00,0.00,VWS V14.00,2013-01-25 04:30:00,
2013-01-24 22:35:00,42.3,26.4,30.19,ENE,74,4.0,8.0,53,0.00,,---,0.00,0.00,VWS V14.00,2013-01-25 04:35:00,
2013-01-24 22:40:00,42.4,26.5,30.19,ESE,107,3.0,9.0,53,0.00,,---,0.00,0.00,VWS V14.00,2013-01-25 04:40:00,
2013-01-24 22:45:00,42.4,27.0,30.19,ENE,75,0.0,9.0,54,0.00,,---,0.00,0.00,VWS V14.00,2013-01-25 04:45:00,
2013-01-24 22:50:00,42.5,26.6,30.19,ENE,69,4.0,9.0,53,0.00,,---,0.00,0.00,VWS V14.00,2013-01-25 04:50:00,
2013-01-24 22:55:00,42.5,27.0,30.19,ENE,59,1.0,9.0,54,0.00,,---,0.00,0.00,VWS V14.00,2013-01-25 04:55:00,
2013-01-24 23:00:00,42.6,26.7,30.19,ENE,59,0.0,1.0,53,0.00,,---,0.00,0.00,VWS V14.00,2013-01-25 05:00:00,
2013-01-24 23:02:00,42.6,27.1,30.19,East,85,4.0,4.0,54,0.00,,---,0.00,0.00,VWS V14.00,2013-01-25 05:02:00,
2013-01-24 23:07:00,42.7,27.2,30.19,East,97,0.0,6.0,54,0.00,,---,0.00,0.00,VWS V14.00,2013-01-25 05:07:00,
2013-01-24 23:12:00,42.7,26.8,30.19,ENE,76,0.0,6.0,53,0.00,,---,0.00,0.00,VWS V14.00,2013-01-25 05:12:00,
2013-01-24 23:17:00,42.7,26.8,30.19,East,90,2.0,6.0,53,0.00,,---,0.00,0.00,VWS V14.00,2013-01-25 05:17:00,
2013-01-24 23:22:00,42.8,26.9,30.19,East,100,0.0,6.0,53,0.00,,---,0.00,0.00,VWS V14.00,2013-01-25 05:22:00,
2013-01-24 23:27:00,42.8,26.9,30.19,ENE,59,2.0,2.0,53,0.00,,---,0.00,0.00,VWS V14.00,2013-01-25 05:27:00,
2013-01-24 23:30:00,42.8,26.9,30.19,ENE,59,1.0,6.0,53,0.00,,---,0.00,0.00,VWS V14.00,2013-01-25 05:30:00,
2013-01-24 23:32:00,42.9,27.0,30.19,ESE,111,1.0,4.0,53,0.00,,---,0.00,0.00,VWS V14.00,2013-01-25 05:32:00,
2013-01-24 23:37:00,42.9,27.4,30.19,ENE,76,0.0,4.0,54,0.00,,---,0.00,0.00,VWS V14.00,2013-01-25 05:37:00,
2013-01-24 23:42:00,42.9,27.0,30.18,ESE,105,1.0,6.0,53,0.00,,---,0.00,0.00,VWS V14.00,2013-01-25 05:42:00,
2013-01-24 23:47:00,43.0,27.0,30.18,East,93,0.0,7.0,53,0.00,,---,0.00,0.00,VWS V14.00,2013-01-25 05:47:00,
2013-01-24 23:52:00,43.0,27.5,30.18,East,101,2.0,7.0,54,0.00,,---,0.00,0.00,VWS V14.00,2013-01-25 05:52:00,
2013-01-24 23:57:00,43.1,27.6,30.18,ESE,116,0.0,7.0,54,0.00,,---,0.00,0.00,VWS V14.00,2013-01-25 05:57:00,